Time,TemperatureF,DewpointF,PressureIn,WindDirection,WindDirectionDegrees,WindSpeedMPH,WindSpeedGustMPH,Humidity,HourlyPrecipIn,Conditions,Clouds,dailyrainin,SoftwareType,DateUTC
2013-01-10 00:02:00,49.0,34.0,30.32,ESE,120,10.0,15.0,55,-99.99,,,-99.99,,2013-01-10 06:02:00,
2013-01-10 00:12:00,49.0,33.0,30.31,SE,125,11.0,18.0,54,-99.99,,,-99.99,,2013-01-10 06:12:00,
2013-01-10 00:22:00,49.0,33.0,30.31,SE,125,11.0,18.0,54,-99.99,,,-99.99,,2013-01-10 06:22:00,
2013-01-10 00:30:00,49.0,34.0,30.29,SE,125,13.0,20.0,56,-99.99,,,-99.99,,2013-01-10 06:30:00,
2013-01-10 00:32:00,49.0,33.0,30.30,SE,125,11.0,19.0,53,-99.99,,,-99.99,,2013-01-10 06:32:00,
2013-01-10 00:42:00,50.0,33.0,30.30,ESE,110,13.0,19.0,53,-99.99,,,-99.99,,2013-01-10 06:42:00,
2013-01-10 00:52:00,50.0,33.0,30.30,ESE,110,13.0,19.0,53,-99.99,,,-99.99,,2013-01-10 06:52:00,
2013-01-10 01:02:00,49.0,34.0,30.29,ESE,110,13.0,22.0,55,-99.99,,,-99.99,,2013-01-10 07:02:00,
2013-01-10 01:12:00,49.0,34.0,30.29,SE,125,13.0,20.0,56,-99.99,,,-99.99,,2013-01-10 07:12:00,
2013-01-10 01:22:00,49.0,34.0,30.29,SE,125,13.0,20.0,56,-99.99,,,-99.99,,2013-01-10 07:22:00,
2013-01-10 02:02:00,49.0,34.0,30.27,ESE,120,12.0,21.0,58,-99.99,,,-99.99,,2013-01-10 08:02:00,
2013-01-10 02:12:00,48.0,35.0,30.27,SE,130,15.0,22.0,60,-99.99,,,-99.99,,2013-01-10 08:12:00,
2013-01-10 02:22:00,48.0,35.0,30.27,SE,130,15.0,22.0,60,-99.99,,,-99.99,,2013-01-10 08:22:00,
2013-01-10 02:32:00,47.0,36.0,30.26,ESE,115,10.0,17.0,65,-99.99,,,-99.99,,2013-01-10 08:32:00,
2013-01-10 02:42:00,47.0,36.0,30.26,SE,130,12.0,19.0,66,-99.99,,,-99.99,,2013-01-10 08:42:00,
2013-01-10 02:52:00,47.0,36.0,30.26,SE,130,12.0,19.0,66,-99.99,,,-99.99,,2013-01-10 08:52:00,
2013-01-10 03:02:00,47.0,36.0,30.25,SE,125,15.0,21.0,67,-99.99,,,-99.99,,2013-01-10 09:02:00,
2013-01-10 03:12:00,47.0,37.0,30.25,SE,130,15.0,21.0,68,-99.99,,,-99.99,,2013-01-10 09:12:00,
2013-01-10 03:22:00,47.0,37.0,30.25,SE,130,15.0,21.0,68,-99.99,,,-99.99,,2013-01-10 09:22:00,
2013-01-10 03:32:00,46.0,37.0,30.24,SE,130,13.0,23.0,71,-99.99,,,-99.99,,2013-01-10 09:32:00,
2013-01-10 03:42:00,46.0,37.0,30.24,SE,130,13.0,20.0,72,-99.99,,,-99.99,,2013-01-10 09:42:00,
2013-01-10 03:52:00,46.0,37.0,30.24,SE,130,13.0,20.0,72,-99.99,,,-99.99,,2013-01-10 09:52:00,
2013-01-10 04:03:00,45.0,38.0,30.22,SE,125,13.0,22.0,76,-99.99,,,-99.99,,2013-01-10 10:03:00,
2013-01-10 04:12:00,44.0,37.0,30.21,ESE,120,13.0,19.0,77,-99.99,,,-99.99,,2013-01-10 10:12:00,
2013-01-10 04:22:00,44.0,37.0,30.21,ESE,120,13.0,19.0,77,-99.99,,,-99.99,,2013-01-10 10:22:00,
2013-01-10 04:32:00,44.0,38.0,30.19,SE,125,14.0,23.0,79,-99.99,,,-99.99,,2013-01-10 10:32:00,
2013-01-10 04:42:00,44.0,38.0,30.19,ESE,120,16.0,23.0,80,-99.99,,,-99.99,,2013-01-10 10:42:00,
2013-01-10 04:52:00,44.0,38.0,30.19,ESE,120,16.0,23.0,80,-99.99,,,-99.99,,2013-01-10 10:52:00,
2013-01-10 05:02:00,43.0,38.0,30.18,SE,140,12.0,22.0,83,-99.99,,,-99.99,,2013-01-10 11:02:00,
2013-01-10 05:12:00,42.0,38.0,30.17,SE,130,12.0,19.0,84,-99.99,,,-99.99,,2013-01-10 11:12:00,
2013-01-10 05:22:00,42.0,38.0,30.17,SE,130,12.0,19.0,84,-99.99,,,-99.99,,2013-01-10 11:22:00,
2013-01-10 05:32:00,42.0,38.0,30.16,ESE,115,10.0,17.0,85,-99.99,,,-99.99,,2013-01-10 11:32:00,
2013-01-10 05:43:00,42.0,38.0,30.15,SE,135,13.0,21.0,86,-99.99,,,-99.99,,2013-01-10 11:43:00,
2013-01-10 05:52:00,42.0,38.0,30.15,SE,135,13.0,21.0,86,-99.99,,,-99.99,,2013-01-10 11:52:00,
2013-01-10 06:03:00,42.0,38.0,30.15,SE,135,12.0,18.0,87,-99.99,,,-99.99,,2013-01-10 12:03:00,
2013-01-10 06:12:00,42.0,38.0,30.14,SE,125,9.0,15.0,87,-99.99,,,-99.99,,2013-01-10 12:12:00,
2013-01-10 06:22:00,42.0,38.0,30.14,SE,125,9.0,15.0,87,-99.99,,,-99.99,,2013-01-10 12:22:00,
2013-01-10 06:33:00,42.0,39.0,30.13,SE,125,12.0,18.0,88,-99.99,,,-99.99,,2013-01-10 12:33:00,
2013-01-10 06:43:00,42.0,39.0,30.13,SE,130,11.0,21.0,88,-99.99,,,-99.99,,2013-01-10 12:43:00,
2013-01-10 06:52:00,42.0,39.0,30.13,SE,130,11.0,21.0,88,-99.99,,,-99.99,,2013-01-10 12:52:00,
2013-01-10 07:02:00,42.0,39.0,30.13,SE,130,12.0,17.0,88,-99.99,,,-99.99,,2013-01-10 13:02:00,
2013-01-10 07:12:00,43.0,39.0,30.13,SE,130,11.0,17.0,88,-99.99,,,-99.99,,2013-01-10 13:12:00,
2013-01-10 07:22:00,43.0,39.0,30.13,SE,130,11.0,17.0,88,-99.99,,,-99.99,,2013-01-10 13:22:00,
2013-01-10 07:32:00,43.0,40.0,30.12,SE,125,11.0,19.0,88,-99.99,,,-99.99,,2013-01-10 13:32:00,
2013-01-10 07:42:00,43.0,40.0,30.12,SE,125,12.0,17.0,88,-99.99,,,-99.99,,2013-01-10 13:42:00,
2013-01-10 07:52:00,43.0,40.0,30.12,SE,125,12.0,17.0,88,-99.99,,,-99.99,,2013-01-10 13:52:00,
2013-01-10 08:02:00,43.0,40.0,30.11,SE,135,11.0,17.0,88,-99.99,,,-99.99,,2013-01-10 14:02:00,
2013-01-10 08:12:00,43.0,40.0,30.12,SE,135,10.0,15.0,88,-99.99,,,-99.99,,2013-01-10 14:12:00,
2013-01-10 08:22:00,43.0,40.0,30.12,SE,135,10.0,15.0,88,-99.99,,,-99.99,,2013-01-10 14:22:00,
2013-01-10 08:33:00,44.0,41.0,30.11,SE,130,13.0,18.0,89,-99.99,,,-99.99,,2013-01-10 14:33:00,
2013-01-10 08:43:00,44.0,41.0,30.10,SE,135,14.0,19.0,89,-99.99,,,-99.99,,2013-01-10 14:43:00,
2013-01-10 08:53:00,44.0,41.0,30.10,SE,135,14.0,19.0,89,-99.99,,,-99.99,,2013-01-10 14:53:00,
2013-01-10 09:03:00,44.0,41.0,30.10,SE,145,9.0,17.0,89,-99.99,,,-99.99,,2013-01-10 15:03:00,
2013-01-10 09:12:00,44.0,41.0,30.10,SE,140,12.0,18.0,89,-99.99,,,-99.99,,2013-01-10 15:12:00,
2013-01-10 09:23:00,44.0,41.0,30.10,SE,140,12.0,18.0,89,-99.99,,,-99.99,,2013-01-10 15:23:00,
2013-01-10 09:33:00,45.0,42.0,30.08,SE,125,13.0,18.0,89,-99.99,,,-99.99,,2013-01-10 15:33:00,
2013-01-10 09:43:00,45.0,42.0,30.08,SE,135,13.0,19.0,89,-99.99,,,-99.99,,2013-01-10 15:43:00,
2013-01-10 09:53:00,45.0,42.0,30.08,SE,135,13.0,19.0,89,-99.99,,,-99.99,,2013-01-10 15:53:00,
2013-01-10 10:03:00,45.0,42.0,30.07,SE,135,14.0,23.0,90,-99.99,,,-99.99,,2013-01-10 16:03:00,
2013-01-10 10:13:00,45.0,43.0,30.06,SE,140,12.0,21.0,90,-99.99,,,-99.99,,2013-01-10 16:13:00,
2013-01-10 10:23:00,45.0,43.0,30.06,SE,140,12.0,21.0,90,-99.99,,,-99.99,,2013-01-10 16:23:00,
2013-01-10 10:33:00,46.0,43.0,30.06,SSE,150,11.0,18.0,90,-99.99,,,-99.99,,2013-01-10 16:33:00,
2013-01-10 10:43:00,46.0,43.0,30.06,SSE,160,12.0,20.0,90,-99.99,,,-99.99,,2013-01-10 16:43:00,
2013-01-10 10:52:00,46.0,43.0,30.06,SSE,160,12.0,20.0,90,-99.99,,,-99.99,,2013-01-10 16:52:00,
2013-01-10 11:03:00,47.0,44.0,30.03,SSE,150,10.0,20.0,90,-99.99,,,-99.99,,2013-01-10 17:03:00,
2013-01-10 11:12:00,47.0,44.0,30.02,SSE,150,12.0,18.0,90,-99.99,,,-99.99,,2013-01-10 17:12:00,
2013-01-10 11:22:00,47.0,44.0,30.02,SSE,150,12.0,18.0,90,-99.99,,,-99.99,,2013-01-10 17:22:00,
2013-01-10 11:33:00,48.0,45.0,30.02,South,185,12.0,17.0,90,-99.99,,,-99.99,,2013-01-10 17:33:00,
2013-01-10 11:42:00,48.0,46.0,30.02,SSE,165,11.0,19.0,90,-99.99,,,-99.99,,2013-01-10 17:42:00,
2013-01-10 11:53:00,49.0,46.0,30.01,SSE,165,12.0,20.0,91,-99.99,,,-99.99,,2013-01-10 17:53:00,
2013-01-10 12:03:00,49.0,46.0,30.01,SSE,165,12.0,20.0,91,-99.99,,,-99.99,,2013-01-10 18:03:00,
2013-01-10 12:12:00,49.0,47.0,30.00,South,170,13.0,19.0,91,-99.99,,,-99.99,,2013-01-10 18:12:00,
2013-01-10 12:23:00,49.0,47.0,30.00,South,170,13.0,19.0,91,-99.99,,,-99.99,,2013-01-10 18:23:00,
2013-01-10 12:33:00,51.0,48.0,29.96,SE,145,13.0,19.0,91,-99.99,,,-99.99,,2013-01-10 18:33:00,
2013-01-10 12:43:00,51.0,48.0,29.95,SSE,160,15.0,20.0,91,-99.99,,,-99.99,,2013-01-10 18:43:00,
2013-01-10 12:52:00,51.0,48.0,29.95,SSE,160,15.0,20.0,91,-99.99,,,-99.99,,2013-01-10 18:52:00,
2013-01-10 13:03:00,51.0,49.0,29.94,SSE,165,14.0,18.0,91,-99.99,,,-99.99,,2013-01-10 19:03:00,
2013-01-10 13:13:00,51.0,49.0,29.94,SSE,160,13.0,20.0,91,-99.99,,,-99.99,,2013-01-10 19:13:00,
2013-01-10 13:23:00,51.0,49.0,29.94,SSE,160,13.0,20.0,91,-99.99,,,-99.99,,2013-01-10 19:23:00,
2013-01-10 13:33:00,51.0,49.0,29.92,SSE,155,12.0,15.0,91,-99.99,,,-99.99,,2013-01-10 19:33:00,
2013-01-10 13:43:00,51.0,49.0,29.92,SSE,165,13.0,20.0,91,-99.99,,,-99.99,,2013-01-10 19:43:00,
2013-01-10 13:53:00,51.0,49.0,29.92,SSE,165,13.0,20.0,91,-99.99,,,-99.99,,2013-01-10 19:53:00,
2013-01-10 14:03:00,52.0,50.0,29.91,SSE,150,10.0,18.0,91,-99.99,,,-99.99,,2013-01-10 20:03:00,
2013-01-10 14:13:00,53.0,50.0,29.90,SSE,160,11.0,16.0,91,-99.99,,,-99.99,,2013-01-10 20:13:00,
2013-01-10 14:24:00,53.0,50.0,29.90,SSE,160,11.0,16.0,91,-99.99,,,-99.99,,2013-01-10 20:24:00,
2013-01-10 14:33:00,54.0,51.0,29.89,South,170,10.0,17.0,91,-99.99,,,-99.99,,2013-01-10 20:33:00,
2013-01-10 14:43:00,54.0,52.0,29.88,SSE,165,12.0,16.0,91,-99.99,,,-99.99,,2013-01-10 20:43:00,
2013-01-10 14:53:00,54.0,52.0,29.88,SSE,165,12.0,16.0,91,-99.99,,,-99.99,,2013-01-10 20:53:00,
2013-01-10 15:03:00,55.0,52.0,29.87,SSE,165,12.0,17.0,90,-99.99,,,-99.99,,2013-01-10 21:03:00,
2013-01-10 15:12:00,55.0,52.0,29.88,SSE,160,11.0,15.0,90,-99.99,,,-99.99,,2013-01-10 21:12:00,
2013-01-10 15:23:00,55.0,52.0,29.88,SSE,160,11.0,15.0,90,-99.99,,,-99.99,,2013-01-10 21:23:00,
2013-01-10 15:33:00,54.0,52.0,29.86,SSE,160,11.0,15.0,90,-99.99,,,-99.99,,2013-01-10 21:33:00,
2013-01-10 15:42:00,54.0,51.0,29.86,SSE,160,10.0,14.0,90,-99.99,,,-99.99,,2013-01-10 21:42:00,
2013-01-10 15:53:00,54.0,51.0,29.86,SSE,160,10.0,14.0,90,-99.99,,,-99.99,,2013-01-10 21:53:00,
2013-01-10 16:03:00,54.0,51.0,29.87,South,175,9.0,17.0,90,-99.99,,,-99.99,,2013-01-10 22:03:00,
2013-01-10 16:12:00,54.0,51.0,29.86,SSE,160,6.0,14.0,90,-99.99,,,-99.99,,2013-01-10 22:12:00,
2013-01-10 16:33:00,54.0,51.0,29.88,South,185,10.0,14.0,90,-99.99,,,-99.99,,2013-01-10 22:33:00,
2013-01-10 16:43:00,54.0,51.0,29.87,South,180,6.0,13.0,90,-99.99,,,-99.99,,2013-01-10 22:43:00,
2013-01-10 17:03:00,54.0,51.0,29.86,SE,135,8.0,10.0,90,-99.99,,,-99.99,,2013-01-10 23:03:00,
2013-01-10 17:12:00,54.0,51.0,29.86,SE,145,9.0,12.0,91,-99.99,,,-99.99,,2013-01-10 23:12:00,
2013-01-10 17:23:00,54.0,51.0,29.86,SE,145,9.0,12.0,91,-99.99,,,-99.99,,2013-01-10 23:23:00,
2013-01-10 17:33:00,53.0,51.0,29.86,SSE,150,7.0,11.0,91,-99.99,,,-99.99,,2013-01-10 23:33:00,
2013-01-10 17:43:00,53.0,51.0,29.85,SSE,155,6.0,11.0,91,-99.99,,,-99.99,,2013-01-10 23:43:00,
2013-01-10 17:53:00,53.0,51.0,29.85,SSE,155,6.0,11.0,91,-99.99,,,-99.99,,2013-01-10 23:53:00,
2013-01-10 18:00:00,53.0,50.0,29.82,SE,125,10.0,15.0,91,-99.99,,,-99.99,,2013-01-11 00:00:00,
2013-01-10 18:12:00,53.0,50.0,29.84,SE,145,8.0,12.0,91,-99.99,,,-99.99,,2013-01-11 00:12:00,
2013-01-10 18:23:00,53.0,50.0,29.84,SE,145,8.0,12.0,91,-99.99,,,-99.99,,2013-01-11 00:23:00,
2013-01-10 18:33:00,53.0,50.0,29.83,SE,130,11.0,13.0,91,-99.99,,,-99.99,,2013-01-11 00:33:00,
2013-01-10 18:42:00,53.0,50.0,29.82,SE,125,10.0,15.0,91,-99.99,,,-99.99,,2013-01-11 00:42:00,
2013-01-10 18:52:00,53.0,50.0,29.82,SE,125,10.0,15.0,91,-99.99,,,-99.99,,2013-01-11 00:52:00,
2013-01-10 19:13:00,53.0,50.0,29.81,SE,135,9.0,13.0,91,-99.99,,,-99.99,,2013-01-11 01:13:00,
2013-01-10 19:23:00,53.0,50.0,29.81,SE,135,9.0,13.0,91,-99.99,,,-99.99,,2013-01-11 01:23:00,
2013-01-10 19:33:00,53.0,50.0,29.80,SE,140,9.0,13.0,91,-99.99,,,-99.99,,2013-01-11 01:33:00,
2013-01-10 19:43:00,53.0,50.0,29.79,SE,135,7.0,11.0,91,-99.99,,,-99.99,,2013-01-11 01:43:00,
2013-01-10 19:52:00,53.0,50.0,29.79,SE,135,7.0,11.0,91,-99.99,,,-99.99,,2013-01-11 01:52:00,
2013-01-10 20:03:00,53.0,50.0,29.79,SSE,150,5.0,9.0,91,-99.99,,,-99.99,,2013-01-11 02:03:00,
2013-01-10 20:13:00,53.0,50.0,29.79,SSW,200,7.0,10.0,91,-99.99,,,-99.99,,2013-01-11 02:13:00,
2013-01-10 20:23:00,53.0,50.0,29.79,SSW,200,7.0,10.0,91,-99.99,,,-99.99,,2013-01-11 02:23:00,
2013-01-10 20:33:00,54.0,51.0,29.86,WSW,245,11.0,19.0,91,-99.99,,,-99.99,,2013-01-11 02:33:00,
2013-01-10 20:43:00,54.0,51.0,29.82,NW,305,7.0,16.0,91,-99.99,,,-99.99,,2013-01-11 02:43:00,
2013-01-10 20:53:00,54.0,51.0,29.82,NW,305,7.0,16.0,91,-99.99,,,-99.99,,2013-01-11 02:53:00,
2013-01-10 21:00:00,53.0,50.0,29.79,WSW,250,3.0,4.0,90,-99.99,,,-99.99,,2013-01-11 03:00:00,
2013-01-10 21:02:00,53.0,51.0,29.81,WNW,295,6.0,11.0,91,-99.99,,,-99.99,,2013-01-11 03:02:00,
2013-01-10 21:12:00,54.0,51.0,29.82,West,265,5.0,9.0,90,-99.99,,,-99.99,,2013-01-11 03:12:00,
2013-01-10 21:23:00,54.0,51.0,29.82,West,265,5.0,9.0,90,-99.99,,,-99.99,,2013-01-11 03:23:00,
2013-01-10 21:33:00,54.0,51.0,29.78,North,0,3.0,5.0,90,-99.99,,,-99.99,,2013-01-11 03:33:00,
2013-01-10 21:43:00,53.0,50.0,29.79,WSW,250,3.0,4.0,90,-99.99,,,-99.99,,2013-01-11 03:43:00,
2013-01-10 21:53:00,53.0,50.0,29.79,WSW,250,3.0,4.0,90,-99.99,,,-99.99,,2013-01-11 03:53:00,
2013-01-10 22:12:00,51.0,49.0,29.79,South,180,5.0,5.0,90,-99.99,,,-99.99,,2013-01-11 04:12:00,
2013-01-10 22:22:00,51.0,49.0,29.79,South,180,5.0,5.0,90,-99.99,,,-99.99,,2013-01-11 04:22:00,
2013-01-10 22:33:00,51.0,49.0,29.79,SSW,205,5.0,7.0,90,-99.99,,,-99.99,,2013-01-11 04:33:00,
2013-01-10 22:42:00,51.0,48.0,29.79,SSW,195,5.0,7.0,90,-99.99,,,-99.99,,2013-01-11 04:42:00,
2013-01-10 22:52:00,51.0,48.0,29.79,SSW,195,5.0,7.0,90,-99.99,,,-99.99,,2013-01-11 04:52:00,
2013-01-10 23:03:00,52.0,49.0,29.79,SSW,205,7.0,10.0,91,-99.99,,,-99.99,,2013-01-11 05:03:00,
2013-01-10 23:13:00,52.0,50.0,29.80,SW,215,9.0,10.0,91,-99.99,,,-99.99,,2013-01-11 05:13:00,
2013-01-10 23:22:00,52.0,50.0,29.80,SW,215,9.0,10.0,91,-99.99,,,-99.99,,2013-01-11 05:22:00,
2013-01-10 23:33:00,52.0,49.0,29.79,SW,225,8.0,11.0,91,-99.99,,,-99.99,,2013-01-11 05:33:00,
2013-01-10 23:43:00,52.0,49.0,29.79,SW,215,9.0,11.0,91,-99.99,,,-99.99,,2013-01-11 05:43:00,
2013-01-10 23:52:00,52.0,49.0,29.79,SW,215,9.0,11.0,91,-99.99,,,-99.99,,2013-01-11 05:52:00,